RH
14 14 14 13 12 10 9 8 7 6 6 6 7 11 25 39 55 67 69 78 72 38 31 32 25 16 26 49 82 79 40 32 28 30 23 37 38 33 41 35 39 57 62 77 91
15 16 16 15 14 12 11 10 7 6 7 8 8 9 19 30 46 59 86 81 70 35 41 42 37 35 29 40 52 52 37 25 37 39 41 50 52 52 47 35 35 46 52 50 86
18 18 18 17 15 13 13 10 7 6 9 10 11 13 15 26 40 57 48 45 38 39 42 43 46 40 31 43 40 43 43 29 42 47 46 43 43 47 52 47 35 44 51 52 53
33 28 22 19 16 15 13 10 7 8 11 14 20 23 21 40 31 49 39 38 37 38 44 49 47 42 37 30 43 35 24 26 28 28 33 27 28 34 40 46 51 57 54 59 55
49 46 33 21 17 16 14 9 7 9 14 21 25 28 23 36 42 43 45 42 38 38 46 46 45 48 42 42 44 42 34 34 37 44 45 44 39 33 30 27 37 50 52 60 57
56 52 44 25 18 17 13 8 8 13 18 22 21 22 26 36 48 50 41 33 30 31 52 51 45 50 51 52 51 45 49 48 49 48 47 48 44 41 34 29 24 33 44 50 51
61 57 49 30 20 16 12 8 12 18 22 22 23 26 32 41 48 46 32 37 36 40 51 54 55 55 58 51 58 61 62 48 44 44 43 46 46 41 35 33 29 22 30 43 43
63 59 51 34 22 17 11 10 18 22 22 33 31 24 40 33 42 37 26 33 53 52 54 57 58 62 60 61 56 57 51 66 40 38 38 48 43 26 28 31 31 28 23 30 37
66 61 52 32 23 18 11 18 19 20 26 24 26 27 27 32 42 36 40 38 47 64 67 68 70 66 69 61 62 61 64 54 48 41 40 47 48 33 34 38 38 35 29 30 35
64 58 50 31 23 19 12 17 22 18 25 22 22 27 30 40 43 40 42 45 55 66 65 70 70 62 61 62 67 69 72 60 56 38 41 50 50 38 37 38 42 36 38 36 36
65 57 44 28 23 20 13 14 20 26 27 48 42 39 40 36 44 40 35 55 66 55 54 60 61 56 53 55 64 74 89 75 55 43 51 54 52 44 39 42 44 40 42 46 42
67 62 36 23 24 19 14 16 33 28 32 34 34 35 39 43 48 38 40 55 63 52 50 54 60 51 54 59 68 72 84 77 51 43 57 58 57 47 42 44 45 40 47 55 43
70 66 35 24 26 18 20 29 48 45 39 25 34 39 41 46 47 42 54 65 68 45 50 66 53 56 55 62 77 66 66 63 68 71 60 72 82 72 54 50 49 47 55 49 82
74 69 48 25 24 20 26 35 55 48 39 20 25 38 42 47 42 45 49 68 54 54 61 60 59 60 55 66 74 87 50 64 85 93 85 99 81 73 79 67 62 52 58 54 95
79 70 57 28 24 22 27 32 56 47 60 22 32 38 47 45 48 37 51 57 69 56 62 43 51 55 74 82 70 72 60 78 91 98 95 97 91 80 72 90 94 95 97 84 100
95 80 58 28 25 22 21 35 45 72 52 28 42 49 41 47 47 50 55 57 65 58 44 53 49 58 99 74 61 67 82 71 77 90 87 95 81 72 89 97 95 98 100 100 100
99 86 55 27 28 19 18 30 84 71 25 30 47 48 48 51 50 49 66 83 83 78 68 53 42 40 61 64 54 67 69 74 70 76 90 93 66 91 94 100 100 100 100 100 100
98 90 53 29 34 18 15 44 61 32 48 46 52 50 49 57 49 54 58 65 65 70 75 80 58 43 38 63 91 87 92 92 87 81 72 61 86 88 97 99 99 99 100 100 100
94 86 60 34 36 14 28 78 36 50 50 54 48 47 50 56 61 56 77 74 68 78 85 86 57 38 40 49 67 68 77 81 90 75 83 80 92 90 96 95 96 98 100 99 100
99 92 54 49 26 11 63 51 46 53 57 62 59 58 54 62 65 77 84 72 71 71 88 78 86 44 43 50 58 68 56 87 75 84 77 78 73 84 86 86 88 95 99 99 100
98 88 54 61 19 18 84 41 50 56 61 66 69 66 66 91 95 88 83 66 66 64 88 66 83 56 48 64 70 69 73 81 84 88 90 76 82 88 90 92 94 95 99 98 99
99 90 78 36 38 70 51 54 53 52 67 71 70 65 74 75 97 89 90 78 71 68 76 76 81 84 55 43 52 79 81 74 88 86 82 88 89 90 89 93 96 98 99 98 97
99 88 63 36 96 69 54 48 57 54 54 63 64 65 68 74 84 72 66 64 72 69 88 78 83 84 60 59 48 71 60 77 78 86 88 91 83 65 76 93 98 98 98 97 97
96 100 49 29 27 50 54 48 55 64 57 62 63 67 70 67 67 82 67 58 67 76 76 75 78 91 76 78 74 85 79 73 80 81 86 86 80 72 73 86 92 100 99 97 97
96 88 67 99 70 59 60 58 54 58 62 66 66 65 73 88 84 82 67 64 65 80 74 75 92 82 67 59 64 78 82 83 91 77 84 85 88 83 83 90 99 100 99 100 100
87 87 86 69 57 63 73 65 51 63 67 63 77 56 73 82 67 76 77 71 74 75 89 85 81 78 84 69 69 73 68 76 85 75 71 76 77 68 76 85 90 91 82 98 100
98 88 92 94 77 72 62 52 49 59 61 61 65 70 81 72 66 69 76 77 78 90 91 90 88 83 78 62 83 78 81 86 81 81 76 71 69 62 64 64 84 91 64 78 91
Wind_Speed
19 19 20 20 20 20 21 21 22 22 21 18 13 9 7 8 12 11 17 13 13 17 17 14 12 9 2 1 1 2 6 10 10 8 3 4 6 3 9 8 7 4 3 6 8
21 22 22 22 22 21 22 22 22 20 17 14 11 9 3 6 12 20 14 11 13 16 15 16 15 11 2 1 1 8 6 8 7 6 7 9 10 14 8 9 9 7 1 11 6
22 22 21 21 21 22 22 23 22 18 15 14 12 8 0 5 5 10 12 12 14 13 14 13 11 7 2 2 0 2 8 7 11 11 15 14 18 14 13 15 11 5 16 17 13
23 23 21 21 21 21 23 24 21 15 14 11 9 8 9 7 2 9 12 13 12 12 10 8 8 6 3 3 2 6 10 12 10 15 16 16 18 22 25 24 24 23 23 22 17
25 26 23 22 22 22 23 23 19 13 12 10 7 6 6 9 8 10 10 13 15 13 7 5 5 4 3 4 6 12 11 12 10 14 19 20 22 23 28 28 27 28 26 20 17
26 27 27 23 21 21 23 21 15 11 9 8 12 10 8 8 8 10 15 17 19 14 7 5 4 5 7 5 6 6 13 18 21 21 20 19 25 22 28 24 29 32 31 25 20
27 28 28 24 21 21 22 17 11 8 7 5 5 4 20 11 7 9 21 23 16 10 9 8 5 5 1 6 8 10 16 17 21 18 9 12 17 19 27 23 28 33 35 33 30
27 28 28 24 21 21 22 14 9 4 7 0 1 6 6 13 7 16 23 22 6 8 3 3 3 4 4 6 11 12 10 7 4 7 7 7 21 18 19 20 23 28 31 34 33
26 27 27 24 22 22 21 9 9 5 3 11 3 4 4 13 16 25 27 21 9 8 4 1 2 2 2 4 6 3 11 16 17 5 10 12 18 14 13 14 21 24 27 30 32
27 27 26 24 22 24 23 2 6 13 4 3 12 3 12 15 9 25 27 13 8 3 1 2 1 2 2 4 9 14 20 21 19 9 12 19 27 26 31 24 27 26 23 24 28
28 28 25 23 21 25 24 4 4 4 20 9 7 5 11 22 3 23 34 11 7 6 6 3 2 3 6 7 11 16 18 23 22 23 21 22 26 25 24 20 26 25 22 22 24
29 28 25 24 17 24 22 12 8 3 7 10 9 10 11 15 8 26 32 11 7 6 11 2 1 3 6 10 15 16 20 21 21 13 12 20 26 22 20 20 23 23 19 22 23
29 30 26 24 14 24 22 18 7 6 2 5 10 9 10 11 6 19 25 10 6 9 9 5 3 8 8 12 11 14 15 15 18 18 21 21 17 10 11 15 20 17 14 20 13
28 30 27 22 11 23 19 18 6 4 2 11 9 9 11 5 2 15 24 6 4 8 9 4 4 7 13 9 9 14 5 12 18 16 11 4 4 7 15 10 6 7 10 13 12
25 28 28 20 14 21 19 15 3 3 2 10 6 8 6 9 9 16 18 6 4 11 4 6 8 13 6 6 13 10 18 20 18 14 13 1 5 5 11 10 15 10 11 11 17
25 27 27 18 17 22 19 13 2 2 3 3 5 11 8 8 7 14 12 15 2 5 5 6 10 4 4 14 12 15 17 16 8 4 3 10 5 6 10 12 11 10 8 25 17
25 27 23 15 21 22 20 5 1 5 2 7 5 8 7 8 6 12 7 12 11 10 13 13 3 4 6 13 5 16 15 4 2 2 4 10 4 6 15 12 10 7 21 13 16
22 26 19 15 22 21 17 1 7 0 3 2 5 6 4 10 5 10 6 7 13 10 7 8 4 10 13 5 8 13 7 4 6 7 8 7 6 7 12 15 18 19 22 21 14
18 22 15 15 20 17 6 5 2 2 2 5 5 3 2 3 6 9 6 5 7 9 8 6 5 9 6 7 6 9 9 9 5 5 3 3 2 3 12 13 18 22 25 24 21
17 18 8 16 16 10 4 3 1 1 1 1 3 4 4 7 7 8 5 2 6 7 1 3 8 4 10 5 1 4 11 3 3 5 4 3 4 7 17 16 14 15 20 22 20
13 8 5 15 12 5 3 2 2 3 1 1 1 2 1 3 2 3 3 2 3 8 3 6 3 6 8 7 9 7 6 5 4 3 4 4 4 8 11 10 9 12 15 16 16
6 2 8 9 3 4 2 3 3 4 2 1 2 2 2 1 2 2 3 3 2 7 7 2 4 6 6 10 5 2 8 6 4 6 3 4 3 8 8 9 8 9 11 12 11
3 3 5 7 1 2 2 1 2 4 3 3 3 3 2 2 3 3 3 2 2 4 7 5 1 6 0 3 2 4 11 9 6 3 4 4 3 7 8 7 9 10 10 11 9
1 2 2 4 4 3 3 3 3 3 3 2 2 2 2 2 3 3 4 2 4 1 5 2 3 4 4 5 6 9 14 11 5 3 4 4 5 10 10 8 10 9 7 7 9
3 2 2 1 1 3 1 2 3 3 3 4 3 8 4 2 2 3 3 5 1 2 4 2 3 4 13 17 11 10 13 8 3 3 3 4 4 7 8 7 7 6 8 6 8
4 4 3 3 3 3 2 4 6 3 6 4 5 5 7 4 4 3 1 2 3 1 2 2 3 5 4 2 3 7 7 6 3 2 2 1 2 2 2 2 6 7 5 5 5
9 9 4 4 3 2 4 4 5 7 6 4 7 5 8 12 11 11 9 10 11 6 1 2 5 6 4 5 8 3 2 3 3 2 2 2 2 5 1 3 2 3 3 3 4
Wind_Direction
29 24 19 16 12 10 7 3 359 354 352 352 9 26 44 71 58 60 43 31 12 1 2 3 7 16 45 154 174 194 249 259 266 244 254 11 336 309 316 272 283 245 273 294 218
26 21 16 13 8 6 3 359 357 355 356 0 359 345 301 127 72 53 35 21 3 0 3 9 9 7 3 349 226 224 250 275 337 291 279 312 320 320 315 290 282 244 213 355 263
26 22 17 12 7 3 0 356 355 356 355 349 350 0 58 161 84 22 14 357 354 356 4 8 4 9 11 350 103 246 254 300 275 284 297 296 291 287 289 271 257 299 307 316 309
23 18 15 10 6 1 360 357 354 358 4 13 21 55 88 132 54 355 357 342 340 338 349 355 359 3 330 325 335 275 262 273 283 288 292 285 290 274 265 265 276 284 301 303 290
19 16 13 10 5 1 358 355 354 3 12 24 52 97 95 73 34 351 356 351 342 325 326 324 325 345 310 289 291 256 278 288 284 281 283 286 273 268 267 275 269 272 281 282 287
13 11 9 8 5 1 357 354 0 14 28 64 82 80 71 75 20 3 342 331 326 315 286 285 269 283 282 254 258 303 285 287 287 281 279 276 274 271 264 258 264 258 259 264 279
8 5 4 5 5 0 356 359 7 25 40 124 80 39 58 54 15 348 347 345 337 322 283 274 259 223 227 277 278 283 291 289 274 269 279 278 268 245 262 262 257 259 253 253 264
3 1 0 1 5 3 358 2 11 18 33 204 338 51 77 16 5 349 353 355 18 350 327 270 245 236 250 294 278 282 282 310 131 280 273 217 271 279 273 265 264 261 260 251 254
359 358 357 358 360 4 5 12 26 8 95 56 48 99 45 4 6 5 359 351 5 17 54 68 134 226 220 303 289 185 295 298 307 218 284 230 285 284 280 276 274 266 259 247 246
4 358 357 356 355 3 9 10 34 39 90 69 47 73 20 341 350 0 355 5 10 19 79 50 86 232 237 309 316 306 297 293 287 269 269 279 276 279 277 272 262 261 260 250 237
7 1 357 355 356 1 10 32 17 34 62 64 56 62 340 350 28 358 359 359 3 35 6 13 281 352 343 310 297 288 278 281 284 284 287 281 275 276 279 268 254 253 247 245 237
5 1 357 355 356 1 7 51 43 112 80 53 40 19 359 7 346 357 359 17 8 6 350 277 46 20 322 301 300 297 293 286 289 296 283 280 275 280 271 261 252 252 240 228 219
4 2 359 357 353 360 13 31 39 127 104 26 26 4 354 355 26 359 2 347 356 342 348 300 351 320 325 328 316 303 291 290 290 308 282 270 277 311 289 260 250 228 232 209 207
360 2 1 360 2 355 6 8 28 135 140 3 358 5 350 2 73 8 4 2 357 328 336 286 314 319 320 323 338 306 306 297 298 303 312 177 300 28 347 24 359 196 192 194 198
358 357 358 358 357 357 349 354 29 122 98 353 345 341 10 38 337 1 8 18 4 328 304 10 323 333 317 303 330 270 305 301 293 281 299 125 262 3 359 358 344 18 46 255 172
351 352 354 358 358 348 347 351 92 201 38 19 340 355 360 20 11 344 12 26 310 325 305 282 302 271 262 300 300 286 299 303 274 277 259 355 310 38 6 329 326 19 357 77 100
347 349 354 3 353 345 343 355 257 57 11 355 341 343 341 351 357 4 15 37 37 352 360 326 330 303 315 326 332 335 332 325 297 315 354 354 22 46 345 3 5 348 43 88 86
342 345 352 357 350 343 343 291 61 73 313 2 327 326 24 359 25 360 5 34 37 11 317 346 337 2 350 353 303 318 325 350 315 342 339 30 17 12 1 2 31 37 59 76 84
336 336 340 348 348 347 354 45 20 210 299 320 305 327 25 18 346 352 33 20 27 14 4 335 286 324 318 326 318 338 358 318 278 225 268 16 138 239 11 10 24 30 40 48 66
324 330 315 341 347 354 59 119 144 195 263 314 1 353 332 346 345 13 10 28 4 28 297 340 292 317 317 318 18 317 327 308 327 324 348 60 50 2 348 359 11 23 28 42 67
322 311 300 340 347 30 70 114 171 185 210 300 285 285 305 313 341 323 327 261 4 358 272 322 259 300 303 22 347 355 8 351 278 323 326 348 45 0 345 350 5 23 29 39 52
329 292 313 345 4 48 78 163 163 163 163 226 234 241 258 280 263 267 279 243 9 343 340 7 293 288 294 317 305 323 5 352 324 355 1 311 69 344 350 8 40 41 42 44 51
296 290 314 338 102 97 139 160 228 176 195 206 229 233 226 266 290 244 263 241 282 1 3 349 233 308 252 178 99 358 345 347 305 259 14 328 40 12 1 12 25 46 43 51 49
245 323 337 36 77 117 157 188 213 207 194 193 223 203 229 250 235 293 278 292 348 58 11 293 267 264 288 312 319 301 323 345 332 317 341 35 342 4 10 2 8 23 38 54 64
183 183 162 281 107 114 140 179 181 208 208 194 220 224 202 232 261 241 263 302 249 18 17 37 269 289 280 277 274 271 290 319 354 4 349 8 5 6 350 344 351 1 17 54 80
216 166 158 152 143 145 127 213 209 176 174 202 218 202 192 218 226 261 187 257 296 336 33 354 299 327 288 188 303 288 291 312 283 309 227 277 47 0 347 343 342 350 30 48 60
217 223 178 152 152 189 206 192 210 174 212 209 202 183 223 249 262 264 256 264 271 291 354 344 340 337 278 320 312 227 253 301 301 266 312 338 33 339 37 61 51 358 1 24 63